Flag for French Southern Territories Weather past 2 weeks in Amsterdam Island, French Southern Territories

Now
53 °F

Cool.


Feels Like: 48 °F
Forecast: 54 / 57 °F
Wind: 15 mph from West

Location: Martin De Vivies Ile Amsterdam

Current Time: Sep 4, 2015 at 3:07:53 AM

Latest Report: Sep 4, 2015 at 1:00 AM


Visibility: N/A

Pressure: 30.21 "Hg

Humidity: 79%

Dew point: 46 °F

Location of Amsterdam IslandLocation

Historic Weather in Amsterdam Island — Graph

°F

Amsterdam Island temperature yesterday

Maximum temperature yesterday: 59 °F (at 11:00 AM)
Minimum temperature yesterday: 50 °F (at 5:00 AM)
Average temperature yesterday: 54 °F

Past Weeks' High & Low Weather Summary

 TemperatureHumidityPressure
High63 °F (Aug 22, 12:00 PM)97% (Aug 22, 12:00 AM)30.50 "Hg (Aug 22, 12:00 AM)
Low43 °F (Aug 26, 4:00 AM)56% (Aug 25, 8:00 PM)29.72 "Hg (Aug 27, 4:00 AM)
Average53 °F83%30.16 "Hg
* Reported Aug 20 1:00 AM — Sep 4 1:00 AM, Amsterdam Island, Weather by CustomWeather, © 2015

Note: Actual official high and low records may vary slightly from our data, if they occured in-between our weather recording intervals... More about our weather records

Advertising

Amsterdam Island weather history for previous 24 hours

 ConditionsComfort  
Time TempWeatherWind HumidityBarometerVisibility
1:00 AM
Fri, Sep 4
53 °FCool.15 mph79%30.21 "HgN/A
12:00 AM53 °FCool.17 mph78%30.20 "HgN/A
11:00 PM
Thu, Sep 3
53 °FCool.17 mph79%30.21 "HgN/A
10:00 PM54 °FCool.16 mph77%30.22 "HgN/A
9:00 PM54 °FCool.15 mph75%30.21 "HgN/A
8:00 PM54 °FCool.17 mph75%30.21 "HgN/A
7:00 PM54 °FCool.18 mph72%30.20 "HgN/A
6:00 PM54 °FCool.16 mph78%30.19 "HgN/A
5:00 PM55 °FCool.22 mph74%30.18 "HgN/A
4:00 PM57 °FCool.22 mph70%30.18 "HgN/A
3:00 PM57 °FCool.26 mph67%30.18 "HgN/A
2:00 PM58 °FCool.24 mph65%30.17 "HgN/A
1:00 PM58 °FCool.23 mph71%30.18 "HgN/A
12:00 PM58 °FCool.21 mph75%30.19 "HgN/A
11:00 AM59 °FCool.20 mph74%30.21 "HgN/A
10:00 AM58 °FCool.23 mph73%30.22 "HgN/A
8:00 AM54 °FCool.20 mph68%30.21 "HgN/A
7:00 AM53 °FCool.23 mph66%30.19 "HgN/A
6:00 AM52 °FCool.16 mph84%30.19 "HgN/A
5:00 AM50 °FCool.13 mph88%30.19 "HgN/A
4:00 AM53 °FCool.12 mph70%30.18 "HgN/A
3:00 AM52 °FCool.12 mph70%30.18 "HgN/A
Weather by CustomWeather, © 2015

See weather overviewHow to use our weather pages